Sparta, WI

12:10 PM CDT on April 25, 2017 (GMT -0500)
Sparta-Fort McCoy

Weather History for KCMY - March, 2013

Change the Weather History Date:

Saturday, March 2, 2013

  Actual Average Record
Temperature  
Mean Temperature 13 °F -  
Max Temperature 30 °F 38 °F 61 °F (1964)
Min Temperature -4 °F 17 °F -18 °F (2014)
Degree Days  
Heating Degree Days 52    
Moisture  
Dew Point 5 °F    
Average Humidity 69    
Maximum Humidity 92    
Minimum Humidity 34    
Precipitation  
Precipitation 0.00 in - - ()
Sea Level Pressure  
Sea Level Pressure 30.25 in    
Wind  
Wind Speed 1 mph (NW)    
Max Wind Speed 9 mph    
Max Gust Speed -    
Visibility 10 miles    
Events      
Averages and records for this station are not official NWS values.
T = Trace of Precipitation, MM = Missing Value Source: NWS Daily Summary

Daily Weather History Graph

Daily Weather History Graph

Search for Another Location

Airport or City:

Trip Planner

Search our weather history database for the weather conditions in past years. The results will help you decide how hot, cold, wet, or windy it might be!

Date:

Astronomy

Mar. 02, 2013 Rise Set
Actual Time 6:37 AM CST 5:53 PM CST
Civil Twilight 6:08 AM CST 6:21 PM CST
Nautical Twilight 5:35 AM CST 6:55 PM CST
Astronomical Twilight 5:02 AM CST 7:28 PM CST
Moon 11:46 PM CST (3/2) 8:53 AM CST (3/2)
Length of Visible Light 12h 13m
Length of Day
11h 15m
Waning Gibbous, 74% of the Moon is Illuminated
Mar 2
Waning Gibbous
Mar 4
Last Quarter
Mar 11
New
Mar 19
First Quarter
Mar 27
Full

Hourly Weather History & Observations

Time (CST) Temp. Windchill Dew Point Humidity Pressure Visibility Wind Dir Wind Speed Gust Speed Precip Events Conditions
12:15 AM 5.0 °F - 3.2 °F 92% 30.28 in 10.0 mi Calm Calm - N/A   Clear
12:35 AM 5.0 °F - 3.2 °F 92% 30.28 in 10.0 mi Calm Calm - N/A   Clear
12:55 AM 5.0 °F - 3.2 °F 92% 30.28 in 10.0 mi Calm Calm - N/A   Clear
1:15 AM 5.0 °F - 1.4 °F 85% 30.28 in 10.0 mi Calm Calm - N/A   Clear
1:35 AM 5.0 °F - 3.2 °F 92% 30.29 in 10.0 mi Calm Calm - N/A   Clear
1:55 AM 5.0 °F - 3.2 °F 92% 30.29 in 10.0 mi Calm Calm - N/A   Clear
2:15 AM 3.2 °F - 1.4 °F 92% 30.29 in 10.0 mi Calm Calm - N/A   Clear
2:35 AM 3.2 °F - 1.4 °F 92% 30.29 in 10.0 mi Calm Calm - N/A   Clear
2:55 AM 3.2 °F - -0.4 °F 85% 30.28 in 10.0 mi Calm Calm - N/A   Clear
3:15 AM 3.2 °F - -0.4 °F 85% 30.28 in 10.0 mi Calm Calm - N/A   Clear
3:35 AM 1.4 °F - -0.4 °F 92% 30.28 in 10.0 mi Calm Calm - N/A   Clear
3:55 AM 1.4 °F - -2.2 °F 85% 30.28 in 10.0 mi Calm Calm - N/A   Clear
4:15 AM 1.4 °F - -2.2 °F 85% 30.28 in 10.0 mi Calm Calm - N/A   Clear
4:35 AM -0.4 °F - -4.0 °F 85% 30.29 in 10.0 mi Calm Calm - N/A   Clear
4:55 AM -0.4 °F - -4.0 °F 85% 30.30 in 10.0 mi Calm Calm - N/A   Clear
5:15 AM -2.2 °F - -5.8 °F 85% 30.30 in 10.0 mi Calm Calm - N/A   Clear
5:35 AM -2.2 °F - -5.8 °F 85% 30.30 in 10.0 mi Calm Calm - N/A   Clear
5:55 AM -2.2 °F - -5.8 °F 85% 30.30 in 10.0 mi Calm Calm - N/A   Clear
6:15 AM -4.0 °F - -7.6 °F 85% 30.30 in 10.0 mi Calm Calm - N/A   Clear
6:35 AM -4.0 °F - -7.6 °F 85% 30.30 in 10.0 mi Calm Calm - N/A   Clear
6:55 AM -4.0 °F - -7.6 °F 85% 30.30 in 10.0 mi Calm Calm - N/A   Clear
7:15 AM -2.2 °F - -5.8 °F 85% 30.30 in 10.0 mi Calm Calm - N/A   Clear
7:35 AM -0.4 °F - -5.8 °F 78% 30.30 in 10.0 mi Calm Calm - N/A   Clear
7:55 AM 1.4 °F - -2.2 °F 85% 30.30 in 10.0 mi Calm Calm - N/A   Clear
8:15 AM 5.0 °F - 1.4 °F 85% 30.30 in 10.0 mi Calm Calm - N/A   Clear
8:35 AM 10.4 °F - 5.0 °F 79% 30.30 in 10.0 mi Calm Calm - N/A   Clear
8:55 AM 14.0 °F - 8.6 °F 79% 30.30 in 10.0 mi Calm Calm - N/A   Clear
9:15 AM 15.8 °F - 8.6 °F 73% 30.29 in 10.0 mi Calm Calm - N/A   Clear
9:35 AM 19.4 °F - 10.4 °F 68% 30.30 in 10.0 mi Calm Calm - N/A   Clear
9:55 AM 21.2 °F - 10.4 °F 63% 30.29 in 10.0 mi Calm Calm - N/A   Clear
10:15 AM 21.2 °F 12.6 °F 10.4 °F 63% 30.29 in 10.0 mi NE 6.9 mph - N/A   Clear
10:35 AM 23.0 °F 13.1 °F 10.4 °F 59% 30.28 in 10.0 mi NNE 9.2 mph - N/A   Clear
10:55 AM 24.8 °F 16.9 °F 10.4 °F 54% 30.27 in 10.0 mi NNE 6.9 mph - N/A   Clear
11:15 AM 26.6 °F 19.1 °F 10.4 °F 51% 30.27 in 10.0 mi North 6.9 mph - N/A   Clear
11:35 AM 26.6 °F 18.2 °F 10.4 °F 51% 30.27 in 10.0 mi NNW 8.1 mph - N/A   Clear
11:55 AM 26.6 °F - 10.4 °F 51% 30.26 in 10.0 mi Calm Calm - N/A   Clear
12:15 PM 26.6 °F 20.0 °F 10.4 °F 51% 30.25 in 10.0 mi WNW 5.8 mph - N/A   Clear
12:35 PM 28.4 °F 20.4 °F 8.6 °F 43% 30.24 in 10.0 mi NW 8.1 mph - N/A   Clear
12:55 PM 28.4 °F 22.2 °F 8.6 °F 43% 30.24 in 10.0 mi NNW 5.8 mph - N/A   Clear
1:15 PM 28.4 °F 21.2 °F 8.6 °F 43% 30.23 in 10.0 mi NW 6.9 mph - N/A   Clear
1:35 PM 28.4 °F 19.7 °F 6.8 °F 40% 30.22 in 10.0 mi NNW 9.2 mph - N/A   Clear
2:15 PM 30.2 °F 26.7 °F 6.8 °F 37% 30.21 in 10.0 mi WNW 3.5 mph - N/A   Clear
2:35 PM 30.2 °F 21.9 °F 8.6 °F 40% 30.20 in 10.0 mi North 9.2 mph - N/A   Clear
2:55 PM 30.2 °F - 8.6 °F 40% 30.20 in 10.0 mi Calm Calm - N/A   Clear
3:15 PM 30.2 °F 21.9 °F 8.6 °F 40% 30.19 in 10.0 mi NW 9.2 mph - N/A   Clear
3:35 PM 30.2 °F - 6.8 °F 37% 30.19 in 10.0 mi Calm Calm - N/A   Clear
3:55 PM 30.2 °F 22.6 °F 8.6 °F 40% 30.19 in 10.0 mi NW 8.1 mph - N/A   Clear
4:15 PM 30.2 °F 25.4 °F 5.0 °F 34% 30.19 in 10.0 mi WNW 4.6 mph - N/A   Clear
4:35 PM 30.2 °F 22.6 °F 6.8 °F 37% 30.20 in 10.0 mi WNW 8.1 mph - N/A   Clear
4:55 PM 28.4 °F 22.2 °F 8.6 °F 43% 30.21 in 10.0 mi WNW 5.8 mph - N/A   Clear
5:15 PM 28.4 °F 21.2 °F 8.6 °F 43% 30.20 in 10.0 mi WNW 6.9 mph - N/A   Clear
5:35 PM 26.6 °F 20.0 °F 8.6 °F 47% 30.21 in 10.0 mi WNW 5.8 mph - N/A   Clear
5:55 PM 26.6 °F 21.2 °F 8.6 °F 47% 30.21 in 10.0 mi NW 4.6 mph - N/A   Clear
6:15 PM 26.6 °F 22.6 °F 8.6 °F 47% 30.21 in 10.0 mi NW 3.5 mph - N/A   Clear
6:35 PM 23.0 °F - 8.6 °F 54% 30.21 in 10.0 mi Calm Calm - N/A   Clear
6:55 PM 21.2 °F - 8.6 °F 58% 30.21 in 10.0 mi Calm Calm - N/A   Clear
7:15 PM 17.6 °F - 8.6 °F 68% 30.21 in 10.0 mi Calm Calm - N/A   Clear
7:35 PM 17.6 °F - 8.6 °F 68% 30.22 in 10.0 mi Calm Calm - N/A   Clear
7:55 PM 14.0 °F - 8.6 °F 79% 30.21 in 10.0 mi Calm Calm - N/A   Clear
8:15 PM 14.0 °F - 8.6 °F 79% 30.21 in 10.0 mi Calm Calm - N/A   Clear
8:35 PM 14.0 °F - 8.6 °F 79% 30.21 in 10.0 mi Calm Calm - N/A   Clear
8:55 PM 12.2 °F - 8.6 °F 85% 30.21 in 10.0 mi Calm Calm - N/A   Clear
9:15 PM 12.2 °F - 8.6 °F 85% 30.20 in 10.0 mi Calm Calm - N/A   Clear
9:35 PM 12.2 °F 6.1 °F 6.8 °F 79% 30.19 in 10.0 mi ESE 3.5 mph - N/A   Clear
9:55 PM 12.2 °F - 6.8 °F 79% 30.19 in 10.0 mi Calm Calm - N/A   Clear
10:15 PM 10.4 °F - 5.0 °F 79% 30.19 in 10.0 mi Calm Calm - N/A   Clear
10:35 PM 10.4 °F - 5.0 °F 79% 30.19 in 10.0 mi Calm Calm - N/A   Clear
10:55 PM 10.4 °F - 5.0 °F 79% 30.18 in 10.0 mi Calm Calm - N/A   Clear
11:15 PM 10.4 °F - 5.0 °F 79% 30.18 in 10.0 mi Calm Calm - N/A   Clear
11:35 PM 10.4 °F - 5.0 °F 79% 30.18 in 10.0 mi Calm Calm - N/A   Clear
11:55 PM 8.6 °F - 5.0 °F 85% 30.17 in 10.0 mi Calm Calm - N/A   Clear